Time,TemperatureF,DewpointF,PressureIn,WindDirection,WindDirectionDegrees,WindSpeedMPH,WindSpeedGustMPH,Humidity,HourlyPrecipIn,Conditions,Clouds,dailyrainin,SolarRadiationWatts/m^2,SoftwareType,DateUTC
2013-02-16 00:01:00,46.0,22.0,-100.00,West,267,3.0,6.0,39,-99.99,,,0.00,0.000000,,2013-02-16 05:01:00,
2013-02-16 00:42:00,44.0,22.0,-100.00,West,272,2.0,6.0,41,-99.99,,,0.00,0.000000,,2013-02-16 05:42:00,
2013-02-16 00:52:00,44.0,22.0,-100.00,West,272,2.0,6.0,41,-99.99,,,0.00,0.000000,,2013-02-16 05:52:00,
2013-02-16 01:01:00,44.0,22.0,-100.00,West,272,2.0,6.0,41,-99.99,,,0.00,0.000000,,2013-02-16 06:01:00,
2013-02-16 01:11:00,44.0,22.0,-100.00,West,272,2.0,6.0,41,-99.99,,,0.00,0.000000,,2013-02-16 06:11:00,
2013-02-16 01:21:00,44.0,22.0,-100.00,West,272,2.0,6.0,41,-99.99,,,0.00,0.000000,,2013-02-16 06:21:00,
2013-02-16 01:42:00,44.0,21.0,-100.00,ENE,73,1.0,5.0,39,0.00,,,0.00,0.000000,,2013-02-16 06:42:00,
2013-02-16 01:52:00,44.0,21.0,-100.00,ENE,73,1.0,5.0,39,0.00,,,0.00,0.000000,,2013-02-16 06:52:00,
2013-02-16 02:02:00,44.0,21.0,-100.00,ENE,73,1.0,5.0,39,0.00,,,0.00,0.000000,,2013-02-16 07:02:00,
2013-02-16 02:42:00,43.0,16.0,-100.00,SSE,161,1.0,7.0,33,0.00,,,0.00,0.000000,,2013-02-16 07:42:00,
2013-02-16 02:53:00,43.0,16.0,-100.00,SSE,161,1.0,7.0,33,0.00,,,0.00,0.000000,,2013-02-16 07:53:00,
2013-02-16 03:01:00,43.0,16.0,-100.00,SSE,161,1.0,7.0,33,0.00,,,0.00,0.000000,,2013-02-16 08:01:00,
2013-02-16 03:42:00,45.0,7.0,-100.00,West,272,3.0,8.0,21,-99.99,,,0.00,0.000000,,2013-02-16 08:42:00,
2013-02-16 03:52:00,45.0,7.0,-100.00,West,272,3.0,8.0,21,-99.99,,,0.00,0.000000,,2013-02-16 08:52:00,
2013-02-16 04:01:00,45.0,7.0,-100.00,West,272,3.0,8.0,21,-99.99,,,0.00,0.000000,,2013-02-16 09:01:00,
2013-02-16 04:42:00,44.0,4.0,-100.00,ENE,70,1.0,5.0,19,-99.99,,,0.00,0.000000,,2013-02-16 09:42:00,
2013-02-16 04:52:00,44.0,4.0,-100.00,ENE,70,1.0,5.0,19,-99.99,,,0.00,0.000000,,2013-02-16 09:52:00,
2013-02-16 05:01:00,44.0,4.0,-100.00,ENE,70,1.0,5.0,19,-99.99,,,0.00,0.000000,,2013-02-16 10:01:00,
2013-02-16 05:42:00,44.0,1.0,-100.00,West,264,4.0,7.0,16,-99.99,,,0.00,0.000000,,2013-02-16 10:42:00,
2013-02-16 05:52:00,44.0,1.0,-100.00,West,264,4.0,7.0,16,-99.99,,,0.00,0.000000,,2013-02-16 10:52:00,
2013-02-16 06:02:00,44.0,1.0,-100.00,West,264,4.0,7.0,16,-99.99,,,0.00,0.000000,,2013-02-16 11:02:00,
2013-02-16 06:42:00,44.0,-2.0,-100.00,WSW,249,4.0,8.0,14,-99.99,,,0.00,0.000000,,2013-02-16 11:42:00,
2013-02-16 06:52:00,44.0,-2.0,-100.00,WSW,249,4.0,8.0,14,-99.99,,,0.00,0.000000,,2013-02-16 11:52:00,
2013-02-16 07:01:00,44.0,-2.0,-100.00,WSW,249,4.0,8.0,14,-99.99,,,0.00,0.000000,,2013-02-16 12:01:00,
2013-02-16 07:42:00,43.0,-3.0,-100.00,West,277,2.0,7.0,14,0.00,,,0.00,0.000000,,2013-02-16 12:42:00,
2013-02-16 07:52:00,43.0,-3.0,-100.00,West,277,2.0,7.0,14,0.00,,,0.00,0.000000,,2013-02-16 12:52:00,
2013-02-16 08:01:00,43.0,-3.0,-100.00,West,277,2.0,7.0,14,0.00,,,0.00,0.000000,,2013-02-16 13:01:00,
2013-02-16 09:42:00,44.0,-5.0,-100.00,WNW,292,2.0,4.0,12,-99.99,,,0.00,0.000000,,2013-02-16 14:42:00,
2013-02-16 09:52:00,44.0,-5.0,-100.00,WNW,292,2.0,4.0,12,-99.99,,,0.00,0.000000,,2013-02-16 14:52:00,
2013-02-16 10:01:00,44.0,-5.0,-100.00,WNW,292,2.0,4.0,12,-99.99,,,0.00,0.000000,,2013-02-16 15:01:00,
2013-02-16 10:42:00,44.0,-2.0,-100.00,West,272,1.0,6.0,14,-99.99,,,0.00,14.000000,,2013-02-16 15:42:00,
2013-02-16 10:52:00,44.0,-2.0,-100.00,West,272,1.0,6.0,14,-99.99,,,0.00,14.000000,,2013-02-16 15:52:00,
2013-02-16 11:01:00,44.0,-2.0,-100.00,West,272,1.0,6.0,14,-99.99,,,0.00,14.000000,,2013-02-16 16:01:00,
2013-02-16 11:42:00,46.0,8.0,-100.00,North,355,2.0,6.0,21,-99.99,,,0.00,138.000000,,2013-02-16 16:42:00,
2013-02-16 11:52:00,46.0,8.0,-100.00,North,355,2.0,6.0,21,-99.99,,,0.00,138.000000,,2013-02-16 16:52:00,
2013-02-16 12:01:00,46.0,8.0,-100.00,North,355,2.0,6.0,21,-99.99,,,0.00,138.000000,,2013-02-16 17:01:00,
2013-02-16 12:42:00,53.0,8.0,-100.00,SSE,149,2.0,8.0,16,-99.99,,,0.00,337.000000,,2013-02-16 17:42:00,
2013-02-16 12:52:00,53.0,8.0,-100.00,SSE,149,2.0,8.0,16,-99.99,,,0.00,337.000000,,2013-02-16 17:52:00,
2013-02-16 13:02:00,53.0,8.0,-100.00,SSE,149,2.0,8.0,16,-99.99,,,0.00,337.000000,,2013-02-16 18:02:00,
2013-02-16 13:42:00,56.0,6.0,-100.00,SSE,148,2.0,5.0,13,-99.99,,,0.00,453.000000,,2013-02-16 18:42:00,
2013-02-16 13:52:00,56.0,6.0,-100.00,SSE,148,2.0,5.0,13,-99.99,,,0.00,453.000000,,2013-02-16 18:52:00,
2013-02-16 14:02:00,56.0,6.0,-100.00,SSE,148,2.0,5.0,13,-99.99,,,0.00,453.000000,,2013-02-16 19:02:00,
2013-02-16 14:42:00,60.0,18.0,-100.00,South,180,3.0,7.0,19,0.00,,,0.00,662.000000,,2013-02-16 19:42:00,
2013-02-16 14:52:00,60.0,18.0,-100.00,South,180,3.0,7.0,19,0.00,,,0.00,662.000000,,2013-02-16 19:52:00,
2013-02-16 15:01:00,60.0,18.0,-100.00,South,180,3.0,7.0,19,0.00,,,0.00,662.000000,,2013-02-16 20:01:00,
2013-02-16 15:42:00,57.0,16.0,-100.00,SW,227,4.0,13.0,20,-99.99,,,0.00,684.000000,,2013-02-16 20:42:00,
2013-02-16 15:52:00,57.0,16.0,-100.00,SW,227,4.0,13.0,20,-99.99,,,0.00,684.000000,,2013-02-16 20:52:00,
2013-02-16 16:02:00,57.0,16.0,-100.00,SW,227,4.0,13.0,20,-99.99,,,0.00,684.000000,,2013-02-16 21:02:00,
2013-02-16 16:11:00,57.0,16.0,-100.00,SW,227,4.0,13.0,20,-99.99,,,0.00,684.000000,,2013-02-16 21:11:00,
2013-02-16 16:21:00,57.0,16.0,-100.00,SW,227,4.0,13.0,20,-99.99,,,0.00,684.000000,,2013-02-16 21:21:00,
2013-02-16 16:42:00,56.0,21.0,-100.00,WSW,242,7.0,16.0,25,0.00,,,0.00,710.000000,,2013-02-16 21:42:00,
2013-02-16 16:52:00,56.0,21.0,-100.00,WSW,242,7.0,16.0,25,0.00,,,0.00,710.000000,,2013-02-16 21:52:00,
2013-02-16 17:01:00,56.0,21.0,-100.00,WSW,242,7.0,16.0,25,0.00,,,0.00,710.000000,,2013-02-16 22:01:00,
2013-02-16 17:11:00,56.0,21.0,-100.00,WSW,242,7.0,16.0,25,0.00,,,0.00,710.000000,,2013-02-16 22:11:00,
2013-02-16 17:21:00,56.0,21.0,-100.00,WSW,242,7.0,16.0,25,0.00,,,0.00,710.000000,,2013-02-16 22:21:00,
2013-02-16 17:42:00,55.0,20.0,-100.00,WSW,251,7.0,13.0,25,0.00,,,0.00,533.000000,,2013-02-16 22:42:00,
2013-02-16 17:52:00,55.0,20.0,-100.00,WSW,251,7.0,13.0,25,0.00,,,0.00,533.000000,,2013-02-16 22:52:00,
2013-02-16 18:02:00,55.0,20.0,-100.00,WSW,251,7.0,13.0,25,0.00,,,0.00,533.000000,,2013-02-16 23:02:00,
2013-02-16 18:11:00,55.0,20.0,-100.00,WSW,251,7.0,13.0,25,0.00,,,0.00,533.000000,,2013-02-16 23:11:00,
2013-02-16 18:21:00,55.0,20.0,-100.00,WSW,251,7.0,13.0,25,0.00,,,0.00,533.000000,,2013-02-16 23:21:00,
2013-02-16 18:42:00,54.0,13.0,-100.00,WSW,247,7.0,14.0,19,0.00,,,0.00,551.000000,,2013-02-16 23:42:00,
2013-02-16 18:52:00,54.0,13.0,-100.00,WSW,247,7.0,14.0,19,0.00,,,0.00,551.000000,,2013-02-16 23:52:00,
2013-02-16 19:02:00,54.0,13.0,-100.00,WSW,247,7.0,14.0,19,0.00,,,0.00,551.000000,,2013-02-17 00:02:00,
2013-02-16 19:42:00,53.0,21.0,-100.00,WSW,238,5.0,12.0,28,0.00,,,0.00,282.000000,,2013-02-17 00:42:00,
2013-02-16 19:52:00,53.0,21.0,-100.00,WSW,238,5.0,12.0,28,0.00,,,0.00,282.000000,,2013-02-17 00:52:00,
2013-02-16 20:01:00,53.0,21.0,-100.00,WSW,238,5.0,12.0,28,0.00,,,0.00,282.000000,,2013-02-17 01:01:00,
2013-02-16 20:11:00,53.0,21.0,-100.00,WSW,238,5.0,12.0,28,0.00,,,0.00,282.000000,,2013-02-17 01:11:00,
2013-02-16 20:21:00,53.0,21.0,-100.00,WSW,238,5.0,12.0,28,0.00,,,0.00,282.000000,,2013-02-17 01:21:00,
2013-02-16 20:42:00,47.0,25.0,-100.00,WNW,298,6.0,10.0,41,0.00,,,0.00,91.000000,,2013-02-17 01:42:00,
2013-02-16 20:52:00,47.0,25.0,-100.00,WNW,298,6.0,10.0,41,0.00,,,0.00,91.000000,,2013-02-17 01:52:00,
2013-02-16 21:01:00,47.0,25.0,-100.00,WNW,298,6.0,10.0,41,0.00,,,0.00,91.000000,,2013-02-17 02:01:00,
2013-02-16 21:11:00,47.0,25.0,-100.00,WNW,298,6.0,10.0,41,0.00,,,0.00,91.000000,,2013-02-17 02:11:00,
2013-02-16 21:21:00,47.0,25.0,-100.00,WNW,298,6.0,10.0,41,0.00,,,0.00,91.000000,,2013-02-17 02:21:00,
2013-02-16 21:42:00,44.0,27.0,-100.00,NE,56,2.0,9.0,50,0.00,,,0.00,7.000000,,2013-02-17 02:42:00,
2013-02-16 21:52:00,44.0,27.0,-100.00,NE,56,2.0,9.0,50,0.00,,,0.00,7.000000,,2013-02-17 02:52:00,
2013-02-16 22:01:00,44.0,27.0,-100.00,NE,56,2.0,9.0,50,0.00,,,0.00,7.000000,,2013-02-17 03:01:00,
2013-02-16 22:11:00,44.0,27.0,-100.00,NE,56,2.0,9.0,50,0.00,,,0.00,7.000000,,2013-02-17 03:11:00,
2013-02-16 22:21:00,44.0,27.0,-100.00,NE,56,2.0,9.0,50,0.00,,,0.00,7.000000,,2013-02-17 03:21:00,
2013-02-16 22:42:00,42.0,27.0,-100.00,NNE,16,3.0,5.0,54,0.00,,,0.00,0.000000,,2013-02-17 03:42:00,
2013-02-16 22:52:00,42.0,27.0,-100.00,NNE,16,3.0,5.0,54,0.00,,,0.00,0.000000,,2013-02-17 03:52:00,
2013-02-16 23:01:00,42.0,27.0,-100.00,NNE,16,3.0,5.0,54,0.00,,,0.00,0.000000,,2013-02-17 04:01:00,
2013-02-16 23:11:00,42.0,27.0,-100.00,NNE,16,3.0,5.0,54,0.00,,,0.00,0.000000,,2013-02-17 04:11:00,
2013-02-16 23:21:00,42.0,27.0,-100.00,NNE,16,3.0,5.0,54,0.00,,,0.00,0.000000,,2013-02-17 04:21:00,
2013-02-16 23:42:00,41.0,27.0,-100.00,West,278,2.0,4.0,56,0.00,,,0.00,0.000000,,2013-02-17 04:42:00,
2013-02-16 23:52:00,41.0,27.0,-100.00,West,278,2.0,4.0,56,0.00,,,0.00,0.000000,,2013-02-17 04:52:00,